| time (UTC) | temp C | wind direction | speed KPH | gust KPH | rain 1hr cm | rain 24hr cm | rain mn cm | humidity % | barometer mb |
| 20260906111055 | 21 | 0 | 0.0 | 0.0 | 0.00 | 0.00 | 0.00 | 66 | 1019.5 |
| 20260906110551 | 21 | 0 | 0.0 | 0.0 | 0.00 | 0.00 | 0.00 | 66 | 1019.6 |
| 20260906105556 | 21 | 0 | 0.0 | 0.0 | 0.00 | 0.00 | 0.00 | 66 | 1019.6 |
| 20260906105055 | 21 | 0 | 0.0 | 0.0 | 0.00 | 0.00 | 0.00 | 66 | 1019.5 |
| 20260906104626 | 21 | 0 | 0.0 | 0.0 | 0.00 | 0.00 | 0.00 | 66 | 1019.5 |
| 20260906104053 | 21 | 0 | 0.0 | 0.0 | 0.00 | 0.00 | 0.00 | 67 | 1019.5 |
| 20260906103551 | 21 | 0 | 0.0 | 0.0 | 0.00 | 0.00 | 0.00 | 67 | 1019.5 |
| 20260906103105 | 21 | 0 | 0.0 | 1.6 | 0.00 | 0.00 | 0.00 | 67 | 1019.4 |
| 20260906102555 | 21 | 0 | 0.0 | 1.6 | 0.00 | 0.00 | 0.00 | 67 | 1019.4 |
| 20260906102054 | 20 | 229 | 0.0 | 1.6 | 0.00 | 0.00 | 0.00 | 67 | 1019.3 |
| 20260906101600 | 20 | 0 | 0.0 | 0.0 | 0.00 | 0.00 | 0.00 | 67 | 1019.5 |
| 20260906101053 | 20 | 0 | 0.0 | 0.0 | 0.00 | 0.00 | 0.00 | 67 | 1019.3 |
| 20260906100554 | 20 | 0 | 0.0 | 0.0 | 0.00 | 0.00 | 0.00 | 67 | 1019.3 |
| 20260906100100 | 20 | 0 | 0.0 | 3.2 | 0.00 | 0.00 | 0.00 | 67 | 1019.3 |
| 20260906095551 | 20 | 0 | 0.0 | 3.2 | 0.00 | 0.00 | 0.00 | 67 | 1019.3 |
| 20260906095051 | 20 | 0 | 0.0 | 4.8 | 0.00 | 0.00 | 0.00 | 67 | 1019.2 |
| 20260906094557 | 20 | 0 | 1.6 | 4.8 | 0.00 | 0.00 | 0.00 | 66 | 1019.1 |
| 20260906094054 | 20 | 229 | 1.6 | 4.8 | 0.00 | 0.00 | 0.00 | 66 | 1019.1 |
| 20260906093551 | 20 | 229 | 0.0 | 4.8 | 0.00 | 0.00 | 0.00 | 66 | 1019.1 |
| 20260906093124 | 20 | 229 | 0.0 | 3.2 | 0.00 | 0.00 | 0.00 | 66 | 1019.2 |
| 20260906092553 | 21 | 229 | 0.0 | 3.2 | 0.00 | 0.00 | 0.00 | 65 | 1019.2 |
| 20260906092052 | 21 | 229 | 0.0 | 6.4 | 0.00 | 0.00 | 0.00 | 64 | 1019.3 |
| 20260906091603 | 21 | 229 | 1.6 | 6.4 | 0.00 | 0.00 | 0.00 | 63 | 1019.1 |
| 20260906091055 | 21 | 229 | 1.6 | 6.4 | 0.00 | 0.00 | 0.00 | 63 | 1019.1 |
| 20260906090553 | 21 | 229 | 0.0 | 3.2 | 0.00 | 0.00 | 0.00 | 64 | 1019.0 |
| 20260906085551 | 21 | 0 | 1.6 | 4.8 | 0.00 | 0.00 | 0.00 | 64 | 1019.1 |
| 20260906085056 | 20 | 229 | 3.2 | 6.4 | 0.00 | 0.00 | 0.00 | 66 | 1019.2 |
| 20260906084558 | 20 | 229 | 3.2 | 8.0 | 0.00 | 0.00 | 0.00 | 66 | 1019.3 |
| 20260906084055 | 20 | 229 | 3.2 | 8.0 | 0.00 | 0.00 | 0.00 | 65 | 1019.3 |
| 20260906083555 | 21 | 229 | 4.8 | 8.0 | 0.00 | 0.00 | 0.00 | 64 | 1019.3 |
| 20260906083103 | 21 | 229 | 4.8 | 6.4 | 0.00 | 0.00 | 0.00 | 63 | 1019.3 |
| 20260906082554 | 21 | 278 | 0.0 | 0.0 | 0.00 | 0.00 | 0.00 | 63 | 1019.3 |
| 20260906082052 | 21 | 0 | 0.0 | 1.6 | 0.00 | 0.00 | 0.00 | 63 | 1019.4 |
| 20260906081602 | 21 | 0 | 0.0 | 1.6 | 0.00 | 0.00 | 0.00 | 63 | 1019.5 |
| 20260906081053 | 21 | 0 | 0.0 | 1.6 | 0.00 | 0.00 | 0.00 | 62 | 1019.5 |
| 20260906080557 | 21 | 0 | 0.0 | 1.6 | 0.00 | 0.00 | 0.00 | 62 | 1019.5 |
| 20260906080104 | 22 | 0 | 0.0 | 0.0 | 0.00 | 0.00 | 0.00 | 62 | 1019.5 |
| 20260906075556 | 22 | 0 | 0.0 | 4.8 | 0.00 | 0.00 | 0.00 | 61 | 1019.6 |
| 20260906075056 | 22 | 0 | 0.0 | 4.8 | 0.00 | 0.00 | 0.00 | 62 | 1019.6 |
| 20260906074603 | 22 | 0 | 1.6 | 4.8 | 0.00 | 0.00 | 0.00 | 61 | 1019.6 |
| 20260906074057 | 22 | 300 | 1.6 | 4.8 | 0.00 | 0.00 | 0.00 | 60 | 1019.8 |
| 20260906073554 | 22 | 0 | 1.6 | 4.8 | 0.00 | 0.00 | 0.00 | 60 | 1019.8 |
| 20260906073104 | 22 | 0 | 0.0 | 4.8 | 0.00 | 0.00 | 0.00 | 58 | 1019.9 |
| 20260906072554 | 23 | 300 | 0.0 | 4.8 | 0.00 | 0.00 | 0.00 | 57 | 1019.8 |
| 20260906072053 | 23 | 300 | 1.6 | 6.4 | 0.00 | 0.00 | 0.00 | 56 | 1019.9 |
| 20260906071603 | 23 | 300 | 1.6 | 8.0 | 0.00 | 0.00 | 0.00 | 55 | 1020.0 |
| 20260906071056 | 23 | 300 | 3.2 | 8.0 | 0.00 | 0.00 | 0.00 | 54 | 1020.1 |
| 20260906070557 | 23 | 300 | 4.8 | 9.7 | 0.00 | 0.00 | 0.00 | 54 | 1020.0 |
| 20260906070105 | 23 | 334 | 3.2 | 9.7 | 0.00 | 0.00 | 0.00 | 54 | 1020.1 |
| 20260906065554 | 23 | 321 | 4.8 | 9.7 | 0.00 | 0.00 | 0.00 | 54 | 1020.1 |
| 20260906065054 | 23 | 299 | 3.2 | 6.4 | 0.00 | 0.00 | 0.00 | 54 | 1020.2 |
| 20260906064602 | 23 | 299 | 1.6 | 4.8 | 0.00 | 0.00 | 0.00 | 54 | 1020.2 |
| 20260906064054 | 23 | 0 | 1.6 | 6.4 | 0.00 | 0.00 | 0.00 | 53 | 1020.2 |
| 20260906063558 | 24 | 299 | 1.6 | 6.4 | 0.00 | 0.00 | 0.00 | 53 | 1020.2 |
| 20260906063102 | 24 | 299 | 3.2 | 9.7 | 0.00 | 0.00 | 0.00 | 52 | 1020.2 |
| 20260906062557 | 25 | 300 | 4.8 | 9.7 | 0.00 | 0.00 | 0.00 | 51 | 1020.3 |
| 20260906062056 | 25 | 306 | 3.2 | 9.7 | 0.00 | 0.00 | 0.00 | 51 | 1020.4 |
| 20260906061605 | 25 | 319 | 4.8 | 11.3 | 0.00 | 0.00 | 0.00 | 50 | 1020.3 |
| 20260906061056 | 25 | 300 | 4.8 | 11.3 | 0.00 | 0.00 | 0.00 | 50 | 1020.2 |
| 20260906060556 | 25 | 297 | 6.4 | 9.7 | 0.00 | 0.00 | 0.00 | 49 | 1020.3 |
| 20260906060103 | 25 | 336 | 4.8 | 9.7 | 0.00 | 0.00 | 0.00 | 49 | 1020.4 |
| 20260906055558 | 25 | 295 | 6.4 | 14.5 | 0.00 | 0.00 | 0.00 | 48 | 1020.4 |
| 20260906055056 | 26 | 293 | 6.4 | 17.7 | 0.00 | 0.00 | 0.00 | 47 | 1020.4 |
| 20260906054612 | 26 | 298 | 9.7 | 17.7 | 0.00 | 0.00 | 0.00 | 47 | 1020.4 |
| 20260906054056 | 26 | 330 | 11.3 | 17.7 | 0.00 | 0.00 | 0.00 | 47 | 1020.4 |
| 20260906053558 | 26 | 314 | 8.0 | 16.1 | 0.00 | 0.00 | 0.00 | 48 | 1020.4 |
| 20260906053058 | 25 | 304 | 9.7 | 16.1 | 0.00 | 0.00 | 0.00 | 48 | 1020.4 |
| 20260906052554 | 25 | 288 | 9.7 | 14.5 | 0.00 | 0.00 | 0.00 | 48 | 1020.4 |
| 20260906052056 | 25 | 283 | 8.0 | 14.5 | 0.00 | 0.00 | 0.00 | 49 | 1020.4 |
| 20260906051603 | 25 | 318 | 9.7 | 14.5 | 0.00 | 0.00 | 0.00 | 49 | 1020.4 |
| 20260906051059 | 25 | 302 | 8.0 | 11.3 | 0.00 | 0.00 | 0.00 | 50 | 1020.6 |
| 20260906050555 | 25 | 287 | 6.4 | 11.3 | 0.00 | 0.00 | 0.00 | 50 | 1020.6 |
| 20260906050123 | 25 | 297 | 8.0 | 11.3 | 0.00 | 0.00 | 0.00 | 49 | 1020.5 |
| 20260906045556 | 26 | 301 | 6.4 | 12.9 | 0.00 | 0.00 | 0.00 | 49 | 1020.4 |
| 20260906045053 | 26 | 300 | 8.0 | 14.5 | 0.00 | 0.00 | 0.00 | 49 | 1020.4 |
| 20260906044559 | 26 | 295 | 8.0 | 14.5 | 0.00 | 0.00 | 0.00 | 48 | 1020.4 |
| 20260906044056 | 26 | 265 | 8.0 | 14.5 | 0.00 | 0.00 | 0.00 | 48 | 1020.4 |
| 20260906043556 | 26 | 333 | 8.0 | 14.5 | 0.00 | 0.00 | 0.00 | 47 | 1020.3 |
| 20260906043107 | 26 | 309 | 8.0 | 14.5 | 0.00 | 0.00 | 0.00 | 47 | 1020.3 |
| 20260906042555 | 26 | 285 | 8.0 | 19.3 | 0.00 | 0.00 | 0.00 | 47 | 1020.4 |
| 20260906042054 | 26 | 264 | 9.7 | 19.3 | 0.00 | 0.00 | 0.00 | 47 | 1020.5 |
| 20260906041602 | 26 | 283 | 9.7 | 16.1 | 0.00 | 0.00 | 0.00 | 47 | 1020.5 |
| 20260906041054 | 26 | 315 | 8.0 | 16.1 | 0.00 | 0.00 | 0.00 | 47 | 1020.3 |
| 20260906040555 | 26 | 288 | 8.0 | 19.3 | 0.00 | 0.00 | 0.00 | 46 | 1020.4 |
| 20260906040135 | 26 | 304 | 6.4 | 19.3 | 0.00 | 0.00 | 0.00 | 46 | 1020.3 |
| 20260906035600 | 26 | 288 | 8.0 | 14.5 | 0.00 | 0.00 | 0.00 | 46 | 1020.3 |
| 20260906035057 | 27 | 288 | 8.0 | 17.7 | 0.00 | 0.00 | 0.00 | 45 | 1020.3 |
| 20260906034558 | 27 | 288 | 8.0 | 19.3 | 0.00 | 0.00 | 0.00 | 45 | 1020.2 |
| 20260906034057 | 27 | 293 | 9.7 | 19.3 | 0.00 | 0.00 | 0.00 | 44 | 1020.1 |
| 20260906033554 | 27 | 295 | 11.3 | 20.9 | 0.00 | 0.00 | 0.00 | 44 | 1020.1 |
| 20260906033111 | 27 | 295 | 12.9 | 20.9 | 0.00 | 0.00 | 0.00 | 44 | 1019.9 |
| 20260906032556 | 27 | 312 | 11.3 | 17.7 | 0.00 | 0.00 | 0.00 | 44 | 1019.9 |
| 20260906032054 | 27 | 304 | 9.7 | 19.3 | 0.00 | 0.00 | 0.00 | 43 | 1019.9 |
| 20260906031603 | 27 | 294 | 9.7 | 19.3 | 0.00 | 0.00 | 0.00 | 43 | 1019.9 |
| 20260906031053 | 27 | 288 | 11.3 | 19.3 | 0.00 | 0.00 | 0.00 | 43 | 1019.8 |
| 20260906030556 | 27 | 295 | 8.0 | 17.7 | 0.00 | 0.00 | 0.00 | 43 | 1019.7 |
| 20260906025556 | 27 | 345 | 9.7 | 17.7 | 0.00 | 0.00 | 0.00 | 43 | 1019.6 |
| 20260906025056 | 27 | 309 | 8.0 | 14.5 | 0.00 | 0.00 | 0.00 | 43 | 1019.5 |
| 20260906024618 | 27 | 288 | 8.0 | 16.1 | 0.00 | 0.00 | 0.00 | 43 | 1019.5 |
| 20260906024056 | 27 | 297 | 9.7 | 16.1 | 0.00 | 0.00 | 0.00 | 43 | 1019.4 |
| 20260906023556 | 27 | 328 | 9.7 | 16.1 | 0.00 | 0.00 | 0.00 | 42 | 1019.3 |
| 20260906023102 | 28 | 303 | 8.0 | 16.1 | 0.00 | 0.00 | 0.00 | 43 | 1019.2 |
| 20260906022552 | 27 | 269 | 9.7 | 16.1 | 0.00 | 0.00 | 0.00 | 43 | 1019.2 |
| 20260906022052 | 27 | 310 | 8.0 | 14.5 | 0.00 | 0.00 | 0.00 | 43 | 1019.2 |
| 20260906021609 | 27 | 295 | 8.0 | 14.5 | 0.00 | 0.00 | 0.00 | 43 | 1019.2 |
| 20260906021057 | 28 | 285 | 4.8 | 14.5 | 0.00 | 0.00 | 0.00 | 42 | 1019.1 |
| 20260906020555 | 28 | 294 | 8.0 | 14.5 | 0.00 | 0.00 | 0.00 | 41 | 1019.1 |
| 20260906020119 | 28 | 304 | 8.0 | 12.9 | 0.00 | 0.00 | 0.00 | 40 | 1019.1 |
| 20260906015556 | 28 | 296 | 6.4 | 12.9 | 0.00 | 0.00 | 0.00 | 39 | 1019.0 |
| 20260906015056 | 28 | 295 | 6.4 | 12.9 | 0.00 | 0.00 | 0.00 | 39 | 1018.8 |
| 20260906014609 | 28 | 319 | 8.0 | 12.9 | 0.00 | 0.00 | 0.00 | 38 | 1018.8 |
| 20260906014055 | 29 | 321 | 6.4 | 14.5 | 0.00 | 0.00 | 0.00 | 38 | 1018.7 |
| 20260906013558 | 29 | 297 | 8.0 | 14.5 | 0.00 | 0.00 | 0.00 | 37 | 1018.7 |
| 20260906013101 | 30 | 295 | 8.0 | 14.5 | 0.00 | 0.00 | 0.00 | 36 | 1018.7 |
| 20260906012552 | 30 | 292 | 6.4 | 16.1 | 0.00 | 0.00 | 0.00 | 35 | 1018.7 |
| 20260906012052 | 30 | 281 | 8.0 | 16.1 | 0.00 | 0.00 | 0.00 | 35 | 1018.7 |
| 20260906011601 | 30 | 304 | 9.7 | 16.1 | 0.00 | 0.00 | 0.00 | 34 | 1018.8 |
| 20260906011055 | 31 | 285 | 6.4 | 14.5 | 0.00 | 0.00 | 0.00 | 34 | 1018.7 |
| 20260906010555 | 31 | 283 | 6.4 | 16.1 | 0.00 | 0.00 | 0.00 | 33 | 1018.7 |
| 20260906010113 | 31 | 321 | 8.0 | 16.1 | 0.00 | 0.00 | 0.00 | 33 | 1018.7 |
| 20260906005556 | 31 | 309 | 8.0 | 14.5 | 0.00 | 0.00 | 0.00 | 33 | 1018.7 |
| 20260906005056 | 31 | 328 | 8.0 | 14.5 | 0.00 | 0.00 | 0.00 | 33 | 1018.7 |
| 20260906004603 | 31 | 359 | 4.8 | 17.7 | 0.00 | 0.00 | 0.00 | 33 | 1018.7 |
| 20260906004056 | 31 | 345 | 6.4 | 17.7 | 0.00 | 0.00 | 0.00 | 33 | 1018.7 |
| 20260906003554 | 31 | 345 | 9.7 | 17.7 | 0.00 | 0.00 | 0.00 | 32 | 1018.7 |
| 20260906003105 | 32 | 360 | 9.7 | 16.1 | 0.00 | 0.00 | 0.00 | 31 | 1018.8 |
| 20260906002555 | 32 | 309 | 8.0 | 19.3 | 0.00 | 0.00 | 0.00 | 31 | 1018.8 |
| 20260906002055 | 32 | 283 | 6.4 | 22.5 | 0.00 | 0.00 | 0.00 | 32 | 1018.8 |
| 20260906001604 | 32 | 297 | 9.7 | 22.5 | 0.00 | 0.00 | 0.00 | 31 | 1018.7 |
| 20260906001054 | 32 | 310 | 11.3 | 22.5 | 0.00 | 0.00 | 0.00 | 31 | 1018.7 |
| 20260906000556 | 32 | 318 | 8.0 | 17.7 | 0.00 | 0.00 | 0.00 | 31 | 1018.6 |
| 20260905235601 | 32 | 279 | 8.0 | 17.7 | 0.00 | 0.00 | 0.00 | 31 | 1018.7 |
| 20260905235057 | 32 | 340 | 8.0 | 20.9 | 0.00 | 0.00 | 0.00 | 32 | 1018.6 |
| 20260905234614 | 32 | 359 | 11.3 | 20.9 | 0.00 | 0.00 | 0.00 | 30 | 1018.5 |
| 20260905234058 | 33 | 358 | 6.4 | 12.9 | 0.00 | 0.00 | 0.00 | 29 | 1018.5 |
| 20260905233556 | 32 | 354 | 4.8 | 12.9 | 0.00 | 0.00 | 0.00 | 30 | 1018.6 |
| 20260905233103 | 32 | 288 | 3.2 | 16.1 | 0.00 | 0.00 | 0.00 | 30 | 1018.6 |
| 20260905232555 | 32 | 329 | 8.0 | 16.1 | 0.00 | 0.00 | 0.00 | 31 | 1018.6 |
| 20260905232056 | 32 | 360 | 8.0 | 16.1 | 0.00 | 0.00 | 0.00 | 32 | 1018.6 |
| 20260905231605 | 32 | 311 | 8.0 | 16.1 | 0.00 | 0.00 | 0.00 | 30 | 1018.5 |
| 20260905231056 | 33 | 18 | 8.0 | 16.1 | 0.00 | 0.00 | 0.00 | 29 | 1018.5 |
| 20260905230554 | 33 | 339 | 6.4 | 16.1 | 0.00 | 0.00 | 0.00 | 29 | 1018.6 |
| 20260905230129 | 33 | 319 | 8.0 | 17.7 | 0.00 | 0.00 | 0.00 | 29 | 1018.5 |
| 20260905225559 | 33 | 299 | 8.0 | 19.3 | 0.00 | 0.05 | 0.00 | 29 | 1018.6 |
| 20260905225056 | 33 | 302 | 9.7 | 19.3 | 0.00 | 0.05 | 0.00 | 29 | 1018.6 |
| 20260905224604 | 33 | 295 | 3.2 | 16.1 | 0.00 | 0.05 | 0.00 | 31 | 1018.6 |
| 20260905224056 | 32 | 302 | 8.0 | 22.5 | 0.00 | 0.05 | 0.00 | 30 | 1018.7 |
| 20260905223555 | 32 | 301 | 12.9 | 25.7 | 0.00 | 0.05 | 0.00 | 30 | 1018.7 |
| 20260905223104 | 33 | 331 | 11.3 | 25.7 | 0.00 | 0.05 | 0.00 | 30 | 1018.7 |
| 20260905222554 | 33 | 312 | 9.7 | 22.5 | 0.00 | 0.05 | 0.00 | 30 | 1018.8 |
| 20260905222055 | 33 | 307 | 9.7 | 19.3 | 0.00 | 0.05 | 0.00 | 30 | 1018.8 |
| 20260905221603 | 33 | 5 | 8.0 | 17.7 | 0.00 | 0.05 | 0.00 | 30 | 1018.8 |
| 20260905221057 | 33 | 359 | 8.0 | 22.5 | 0.00 | 0.05 | 0.00 | 31 | 1018.8 |
| 20260905220554 | 33 | 359 | 8.0 | 22.5 | 0.00 | 0.05 | 0.00 | 31 | 1018.8 |
| 20260905220110 | 33 | 306 | 6.4 | 19.3 | 0.00 | 0.05 | 0.00 | 31 | 1019.0 |
| 20260905215554 | 32 | 347 | 8.0 | 20.9 | 0.00 | 0.05 | 0.00 | 31 | 1019.1 |
| 20260905215059 | 32 | 359 | 11.3 | 20.9 | 0.00 | 0.05 | 0.00 | 34 | 1019.1 |
| 20260905214604 | 33 | 351 | 8.0 | 19.3 | 0.00 | 0.05 | 0.00 | 31 | 1019.2 |
| 20260905214056 | 32 | 269 | 6.4 | 16.1 | 0.00 | 0.05 | 0.00 | 33 | 1019.3 |
| 20260905213555 | 32 | 331 | 8.0 | 16.1 | 0.00 | 0.05 | 0.00 | 34 | 1019.2 |
| 20260905213103 | 32 | 352 | 9.7 | 24.1 | 0.00 | 0.05 | 0.00 | 35 | 1019.4 |
| 20260905212552 | 32 | 1 | 8.0 | 24.1 | 0.00 | 0.05 | 0.00 | 33 | 1019.4 |
| 20260905212054 | 32 | 359 | 9.7 | 16.1 | 0.00 | 0.05 | 0.00 | 34 | 1019.6 |
| 20260905211605 | 32 | 15 | 4.8 | 16.1 | 0.00 | 0.05 | 0.00 | 33 | 1019.6 |
| 20260905211053 | 32 | 354 | 9.7 | 19.3 | 0.00 | 0.05 | 0.00 | 33 | 1019.7 |
| 20260905210554 | 32 | 327 | 8.0 | 19.3 | 0.00 | 0.05 | 0.00 | 34 | 1019.8 |
| 20260905205555 | 32 | 354 | 6.4 | 14.5 | 0.00 | 0.05 | 0.00 | 34 | 1019.9 |
| 20260905205054 | 32 | 248 | 3.2 | 14.5 | 0.00 | 0.05 | 0.00 | 32 | 1019.9 |
| 20260905204558 | 32 | 348 | 6.4 | 12.9 | 0.00 | 0.05 | 0.00 | 33 | 1020.2 |
| 20260905204053 | 32 | 26 | 1.6 | 19.3 | 0.00 | 0.05 | 0.00 | 33 | 1020.1 |
| 20260905203552 | 32 | 295 | 9.7 | 19.3 | 0.00 | 0.05 | 0.00 | 34 | 1020.2 |
| 20260905203104 | 32 | 349 | 8.0 | 19.3 | 0.00 | 0.05 | 0.00 | 34 | 1020.2 |
| 20260905202554 | 32 | 15 | 3.2 | 19.3 | 0.00 | 0.05 | 0.00 | 34 | 1020.3 |
| 20260905202054 | 32 | 309 | 6.4 | 19.3 | 0.00 | 0.05 | 0.00 | 33 | 1020.5 |
| 20260905201609 | 32 | 1 | 8.0 | 17.7 | 0.00 | 0.05 | 0.00 | 33 | 1020.5 |
| 20260905201053 | 32 | 357 | 8.0 | 17.7 | 0.00 | 0.05 | 0.00 | 33 | 1020.5 |
| 20260905200553 | 31 | 321 | 1.6 | 24.1 | 0.00 | 0.05 | 0.00 | 34 | 1020.6 |
| 20260905200109 | 32 | 278 | 6.4 | 24.1 | 0.00 | 0.05 | 0.00 | 34 | 1020.6 |
| 20260905195553 | 31 | 298 | 6.4 | 24.1 | 0.00 | 0.05 | 0.00 | 34 | 1020.6 |
| 20260905195056 | 31 | 359 | 12.9 | 20.9 | 0.00 | 0.05 | 0.00 | 34 | 1020.6 |
| 20260905194600 | 31 | 335 | 6.4 | 16.1 | 0.00 | 0.05 | 0.00 | 34 | 1020.7 |
| 20260905194056 | 31 | 340 | 6.4 | 12.9 | 0.00 | 0.05 | 0.00 | 34 | 1020.8 |
| 20260905193557 | 31 | 360 | 6.4 | 11.3 | 0.00 | 0.05 | 0.00 | 35 | 1020.9 |
| 20260905193113 | 31 | 1 | 3.2 | 9.7 | 0.00 | 0.05 | 0.00 | 34 | 1021.0 |
| 20260905192554 | 31 | 49 | 4.8 | 9.7 | 0.00 | 0.05 | 0.00 | 34 | 1021.0 |
| 20260905192053 | 31 | 32 | 3.2 | 8.0 | 0.00 | 0.05 | 0.00 | 34 | 1021.1 |
| 20260905191600 | 31 | 53 | 3.2 | 14.5 | 0.00 | 0.05 | 0.00 | 34 | 1021.2 |
| 20260905191053 | 31 | 37 | 3.2 | 14.5 | 0.00 | 0.05 | 0.00 | 35 | 1021.3 |
| 20260905190553 | 31 | 55 | 6.4 | 14.5 | 0.00 | 0.05 | 0.00 | 35 | 1021.4 |
| 20260905190059 | 31 | 1 | 4.8 | 14.5 | 0.00 | 0.05 | 0.00 | 36 | 1021.4 |
| 20260905185553 | 31 | 319 | 4.8 | 14.5 | 0.00 | 0.05 | 0.00 | 35 | 1021.6 |
| 20260905185053 | 31 | 0 | 8.0 | 14.5 | 0.00 | 0.05 | 0.00 | 36 | 1021.7 |
| 20260905184604 | 30 | 252 | 6.4 | 14.5 | 0.00 | 0.05 | 0.00 | 36 | 1021.8 |
| 20260905184054 | 30 | 359 | 8.0 | 12.9 | 0.00 | 0.05 | 0.00 | 37 | 1021.8 |
| 20260905183554 | 30 | 17 | 4.8 | 12.9 | 0.00 | 0.05 | 0.00 | 37 | 1021.9 |
| 20260905183103 | 30 | 300 | 3.2 | 8.0 | 0.00 | 0.05 | 0.00 | 37 | 1022.0 |
| 20260905182555 | 30 | 0 | 3.2 | 8.0 | 0.00 | 0.05 | 0.00 | 37 | 1022.1 |
| 20260905182054 | 30 | 104 | 3.2 | 11.3 | 0.00 | 0.05 | 0.00 | 37 | 1022.0 |
| 20260905181607 | 30 | 0 | 4.8 | 11.3 | 0.00 | 0.05 | 0.00 | 36 | 1022.1 |
| 20260905181057 | 30 | 105 | 1.6 | 16.1 | 0.00 | 0.05 | 0.00 | 37 | 1022.2 |
| 20260905180554 | 30 | 0 | 6.4 | 16.1 | 0.00 | 0.05 | 0.00 | 37 | 1022.3 |
| 20260905175556 | 29 | 346 | 1.6 | 8.0 | 0.00 | 0.05 | 0.00 | 40 | 1022.2 |
| 20260905175053 | 29 | 338 | 1.6 | 11.3 | 0.00 | 0.05 | 0.00 | 38 | 1022.3 |
| 20260905174613 | 29 | 338 | 4.8 | 11.3 | 0.00 | 0.05 | 0.00 | 39 | 1022.3 |
| 20260905174054 | 29 | 350 | 1.6 | 11.3 | 0.00 | 0.05 | 0.00 | 40 | 1022.3 |
| 20260905173552 | 29 | 320 | 3.2 | 11.3 | 0.00 | 0.05 | 0.00 | 40 | 1022.4 |
| 20260905173104 | 28 | 359 | 4.8 | 11.3 | 0.00 | 0.05 | 0.00 | 41 | 1022.4 |
| 20260905172556 | 28 | 360 | 6.4 | 11.3 | 0.00 | 0.05 | 0.00 | 41 | 1022.5 |
| 20260905172056 | 29 | 207 | 4.8 | 8.0 | 0.00 | 0.05 | 0.00 | 40 | 1022.5 |
| 20260905171607 | 28 | 139 | 3.2 | 6.4 | 0.00 | 0.05 | 0.00 | 41 | 1022.4 |
| 20260905171056 | 28 | 59 | 3.2 | 9.7 | 0.00 | 0.05 | 0.00 | 42 | 1022.5 |
| 20260905170554 | 28 | 54 | 4.8 | 9.7 | 0.00 | 0.05 | 0.00 | 41 | 1022.5 |
| 20260905165557 | 28 | 51 | 4.8 | 8.0 | 0.00 | 0.05 | 0.00 | 43 | 1022.5 |
| 20260905165054 | 28 | 39 | 3.2 | 8.0 | 0.00 | 0.05 | 0.00 | 44 | 1022.6 |
| 20260905164605 | 28 | 26 | 4.8 | 8.0 | 0.00 | 0.05 | 0.00 | 45 | 1022.6 |
| 20260905164054 | 27 | 0 | 3.2 | 8.0 | 0.00 | 0.05 | 0.00 | 46 | 1022.7 |
| 20260905163555 | 27 | 58 | 1.6 | 8.0 | 0.00 | 0.05 | 0.00 | 48 | 1022.6 |
| 20260905163102 | 27 | 60 | 3.2 | 8.0 | 0.00 | 0.05 | 0.00 | 48 | 1022.6 |
| 20260905162555 | 27 | 60 | 3.2 | 8.0 | 0.00 | 0.05 | 0.00 | 47 | 1022.6 |
| 20260905162055 | 27 | 82 | 3.2 | 8.0 | 0.00 | 0.05 | 0.00 | 49 | 1022.5 |
| 20260905161559 | 27 | 139 | 1.6 | 6.4 | 0.00 | 0.05 | 0.00 | 49 | 1022.5 |
| 20260905161054 | 27 | 35 | 1.6 | 6.4 | 0.00 | 0.05 | 0.00 | 51 | 1022.5 |
| 20260905160554 | 27 | 35 | 1.6 | 6.4 | 0.00 | 0.05 | 0.00 | 52 | 1022.6 |
| 20260905160107 | 26 | 0 | 1.6 | 6.4 | 0.00 | 0.05 | 0.00 | 53 | 1022.7 |
| 20260905155554 | 26 | 49 | 3.2 | 6.4 | 0.00 | 0.05 | 0.00 | 53 | 1022.7 |
| 20260905155053 | 26 | 49 | 1.6 | 6.4 | 0.00 | 0.05 | 0.00 | 56 | 1022.6 |
| 20260905154608 | 26 | 0 | 1.6 | 4.8 | 0.00 | 0.05 | 0.00 | 56 | 1022.6 |
| 20260905154055 | 26 | 56 | 1.6 | 6.4 | 0.00 | 0.05 | 0.00 | 57 | 1022.6 |
| 20260905153555 | 25 | 0 | 3.2 | 6.4 | 0.00 | 0.05 | 0.00 | 58 | 1022.6 |
| 20260905153100 | 25 | 0 | 1.6 | 4.8 | 0.00 | 0.05 | 0.00 | 59 | 1022.6 |
| 20260905152554 | 25 | 304 | 1.6 | 4.8 | 0.00 | 0.05 | 0.00 | 61 | 1022.8 |
| 20260905152054 | 25 | 297 | 1.6 | 6.4 | 0.00 | 0.05 | 0.00 | 61 | 1022.6 |
| 20260905151601 | 24 | 297 | 1.6 | 6.4 | 0.00 | 0.05 | 0.00 | 64 | 1022.5 |
| 20260905151054 | 24 | 295 | 1.6 | 6.4 | 0.00 | 0.05 | 0.00 | 66 | 1022.4 |
| 20260905150600 | 23 | 285 | 3.2 | 6.4 | 0.00 | 0.05 | 0.00 | 69 | 1022.4 |
| 20260905150115 | 23 | 243 | 0.0 | 4.8 | 0.00 | 0.05 | 0.00 | 72 | 1022.6 |
| 20260905145554 | 23 | 238 | 0.0 | 3.2 | 0.00 | 0.05 | 0.00 | 73 | 1022.6 |
| 20260905145054 | 22 | 0 | 0.0 | 1.6 | 0.00 | 0.05 | 0.00 | 74 | 1022.5 |
| 20260905144602 | 22 | 0 | 0.0 | 3.2 | 0.00 | 0.05 | 0.00 | 75 | 1022.5 |
| 20260905144056 | 22 | 0 | 0.0 | 4.8 | 0.00 | 0.05 | 0.00 | 76 | 1022.5 |
| 20260905143552 | 22 | 0 | 1.6 | 4.8 | 0.00 | 0.05 | 0.00 | 77 | 1022.4 |
| 20260905143104 | 22 | 226 | 3.2 | 4.8 | 0.00 | 0.05 | 0.00 | 78 | 1022.4 |
| 20260905142556 | 22 | 224 | 1.6 | 4.8 | 0.00 | 0.05 | 0.00 | 80 | 1022.4 |
| 20260905142053 | 21 | 0 | 0.0 | 1.6 | 0.00 | 0.05 | 0.00 | 83 | 1022.4 |
| 20260905141603 | 21 | 0 | 0.0 | 0.0 | 0.00 | 0.05 | 0.00 | 86 | 1022.3 |
| 20260905141055 | 20 | 0 | 0.0 | 1.6 | 0.00 | 0.05 | 0.00 | 87 | 1022.3 |
| 20260905140554 | 20 | 0 | 0.0 | 3.2 | 0.00 | 0.05 | 0.00 | 87 | 1022.2 |
| 20260905140106 | 19 | 0 | 0.0 | 3.2 | 0.00 | 0.05 | 0.00 | 88 | 1022.2 |
| 20260905135558 | 18 | 0 | 0.0 | 3.2 | 0.00 | 0.05 | 0.00 | 89 | 1022.1 |
| 20260905135052 | 18 | 224 | 0.0 | 3.2 | 0.00 | 0.05 | 0.00 | 89 | 1022.1 |
| 20260905134605 | 18 | 224 | 1.6 | 3.2 | 0.00 | 0.05 | 0.00 | 89 | 1022.1 |
| 20260905134052 | 18 | 224 | 0.0 | 3.2 | 0.00 | 0.05 | 0.00 | 89 | 1022.0 |
| 20260905133556 | 18 | 0 | 0.0 | 4.8 | 0.00 | 0.05 | 0.00 | 89 | 1022.0 |
| 20260905133105 | 18 | 0 | 0.0 | 6.4 | 0.00 | 0.05 | 0.00 | 89 | 1021.8 |
| 20260905132558 | 17 | 224 | 1.6 | 6.4 | 0.00 | 0.05 | 0.00 | 88 | 1021.7 |
| 20260905132053 | 18 | 224 | 1.6 | 6.4 | 0.00 | 0.05 | 0.00 | 88 | 1021.7 |
| 20260905131607 | 18 | 223 | 3.2 | 4.8 | 0.00 | 0.05 | 0.00 | 89 | 1021.5 |
| 20260905131054 | 18 | 223 | 1.6 | 4.8 | 0.00 | 0.05 | 0.00 | 89 | 1021.5 |
| 20260905130555 | 18 | 223 | 1.6 | 3.2 | 0.00 | 0.05 | 0.00 | 89 | 1021.5 |
| 20260905130108 | 17 | 223 | 0.0 | 3.2 | 0.00 | 0.05 | 0.00 | 88 | 1021.6 |
| 20260905125552 | 18 | 223 | 0.0 | 3.2 | 0.00 | 0.05 | 0.00 | 88 | 1021.5 |
| 20260905125052 | 18 | 223 | 0.0 | 3.2 | 0.00 | 0.05 | 0.00 | 88 | 1021.5 |
| 20260905124604 | 18 | 0 | 0.0 | 4.8 | 0.00 | 0.05 | 0.00 | 88 | 1021.3 |
| 20260905124051 | 18 | 0 | 0.0 | 4.8 | 0.00 | 0.05 | 0.00 | 88 | 1021.3 |
| 20260905123555 | 18 | 0 | 1.6 | 6.4 | 0.00 | 0.05 | 0.00 | 88 | 1021.1 |
| 20260905123102 | 18 | 0 | 3.2 | 6.4 | 0.00 | 0.05 | 0.00 | 88 | 1021.1 |
| 20260905122556 | 18 | 213 | 3.2 | 6.4 | 0.00 | 0.05 | 0.00 | 88 | 1021.0 |
| 20260905122055 | 18 | 75 | 0.0 | 4.8 | 0.00 | 0.05 | 0.00 | 87 | 1021.0 |
| 20260905121604 | 18 | 75 | 0.0 | 4.8 | 0.00 | 0.05 | 0.00 | 87 | 1021.1 |
| 20260905121055 | 18 | 75 | 0.0 | 0.0 | 0.00 | 0.05 | 0.00 | 87 | 1021.0 |
| 20260905120554 | 18 | 0 | 0.0 | 0.0 | 0.00 | 0.05 | 0.00 | 87 | 1021.0 |
| 20260905120105 | 18 | 0 | 0.0 | 0.0 | 0.00 | 0.05 | 0.00 | 87 | 1021.0 |
| 20260905115554 | 18 | 0 | 0.0 | 0.0 | 0.00 | 0.05 | 0.00 | 87 | 1021.0 |
| 20260905115056 | 18 | 0 | 0.0 | 0.0 | 0.00 | 0.05 | 0.00 | 86 | 1020.9 |
| 20260905114605 | 19 | 0 | 0.0 | 0.0 | 0.00 | 0.05 | 0.00 | 86 | 1020.9 |
| 20260905114054 | 19 | 0 | 0.0 | 0.0 | 0.00 | 0.05 | 0.00 | 86 | 1020.9 |
| 20260905113554 | 19 | 0 | 0.0 | 0.0 | 0.00 | 0.05 | 0.00 | 85 | 1021.0 |
| 20260905113117 | 19 | 0 | 0.0 | 0.0 | 0.00 | 0.05 | 0.00 | 85 | 1020.9 |
| 20260905112554 | 19 | 0 | 0.0 | 0.0 | 0.00 | 0.05 | 0.00 | 85 | 1021.0 |
| 20260905112055 | 19 | 0 | 0.0 | 0.0 | 0.00 | 0.05 | 0.00 | 85 | 1020.9 |
| 20260905111602 | 20 | 0 | 0.0 | 0.0 | 0.00 | 0.05 | 0.00 | 84 | 1021.0 |